Hinckley, MN

4:56 PM CST on February 27, 2017 (GMT -0600)
Hinckley

Weather History for K04W - June, 2013

Change the Weather History Date:

Sunday, June 16, 2013

  Actual Average (KJMR) Record (KJMR)
Temperature  
Mean Temperature 66 °F -  
Max Temperature 82 °F 74 °F 94 °F (1987)
Min Temperature 50 °F 49 °F 35 °F (1980)
Cooling Degree Days 1    
Growing Degree Days 16 (Base 50)    
Moisture  
Dew Point 50 °F    
Average Humidity 57    
Maximum Humidity 94    
Minimum Humidity 26    
Precipitation  
Precipitation 0.00 in - - ()
Sea Level Pressure  
Sea Level Pressure 29.86 in    
Wind  
Wind Speed 5 mph (West)    
Max Wind Speed 17 mph    
Max Gust Speed 26 mph    
Visibility 10 miles    
Events Thunderstorm    
Averages and records for this station are not official NWS values.
T = Trace of Precipitation, MM = Missing Value Source: NWS Daily Summary

Daily Weather History Graph

Daily Weather History Graph

Search for Another Location

Airport or City:

Trip Planner

Search our weather history database for the weather conditions in past years. The results will help you decide how hot, cold, wet, or windy it might be!

Date:

Astronomy

Jun. 16, 2013 Rise Set
Actual Time 5:20 AM CDT 9:04 PM CDT
Civil Twilight 4:41 AM CDT 9:43 PM CDT
Nautical Twilight 3:49 AM CDT 10:35 PM CDT
Astronomical Twilight 2:37 AM CDT 11:48 PM CDT
Moon 1:20 PM CDT (6/16) 12:47 AM CDT (6/16)
Length of Visible Light 17h 01m
Length of Day
15h 44m
Waxing Crescent, 50% of the Moon is Illuminated
Jun 16
Waxing Crescent
Jun 16
First Quarter
Jun 23
Full
Jun 29
Last Quarter
Jul 8
New

Hourly Weather History & Observations

Time (CDT) Temp. Dew Point Humidity Pressure Visibility Wind Dir Wind Speed Gust Speed Precip Events Conditions
12:18 AM 51.8 °F 50.0 °F 94% 29.86 in 10.0 mi Calm Calm - N/A   Clear
12:39 AM 51.8 °F 50.0 °F 94% 29.86 in 10.0 mi Calm Calm - N/A   Clear
12:59 AM 51.8 °F 50.0 °F 94% 29.85 in 10.0 mi Calm Calm - N/A   Clear
1:19 AM 51.8 °F 50.0 °F 94% 29.85 in 10.0 mi Calm Calm - N/A   Clear
1:39 AM 51.8 °F 50.0 °F 94% 29.85 in 10.0 mi West 4.6 mph - N/A   Clear
1:58 AM 55.4 °F 48.2 °F 77% 29.86 in 10.0 mi West 3.5 mph - N/A   Clear
2:19 AM 55.4 °F 48.2 °F 77% 29.85 in 10.0 mi West 5.8 mph - N/A   Clear
2:39 AM 55.4 °F 48.2 °F 77% 29.85 in 10.0 mi West 5.8 mph - N/A   Clear
2:58 AM 57.2 °F 48.2 °F 72% 29.85 in 10.0 mi West 4.6 mph - N/A   Clear
3:19 AM 53.6 °F 48.2 °F 82% 29.85 in 10.0 mi West 3.5 mph - N/A   Clear
3:39 AM 53.6 °F 46.4 °F 77% 29.85 in 10.0 mi West 3.5 mph - N/A   Clear
3:58 AM 53.6 °F 46.4 °F 77% 29.85 in 10.0 mi West 3.5 mph - N/A   Clear
4:19 AM 53.6 °F 46.4 °F 77% 29.85 in 10.0 mi West 3.5 mph - N/A   Clear
4:39 AM 55.4 °F 46.4 °F 72% 29.86 in 10.0 mi West 4.6 mph - N/A   Clear
4:58 AM 51.8 °F 46.4 °F 82% 29.86 in 10.0 mi West 4.6 mph - N/A   Clear
5:19 AM 50.0 °F 46.4 °F 87% 29.87 in 10.0 mi WSW 3.5 mph - N/A   Clear
5:39 AM 50.0 °F 46.4 °F 87% 29.88 in 10.0 mi Calm Calm - N/A   Clear
5:58 AM 50.0 °F 46.4 °F 87% 29.88 in 10.0 mi Calm Calm - N/A   Clear
6:19 AM 51.8 °F 50.0 °F 94% 29.88 in 10.0 mi Calm Calm - N/A   Clear
6:39 AM 53.6 °F 50.0 °F 88% 29.89 in 10.0 mi WSW 3.5 mph - N/A   Clear
6:58 AM 59.0 °F 50.0 °F 72% 29.89 in 10.0 mi West 4.6 mph - N/A   Clear
7:19 AM 60.8 °F 50.0 °F 68% 29.89 in 10.0 mi West 6.9 mph - N/A   Clear
7:39 AM 62.6 °F 51.8 °F 68% 29.90 in 10.0 mi West 4.6 mph - N/A   Clear
7:59 AM 64.4 °F 51.8 °F 64% 29.90 in 10.0 mi West 4.6 mph - N/A   Clear
8:19 AM 64.4 °F 51.8 °F 64% 29.90 in 10.0 mi West 8.1 mph - N/A   Clear
8:39 AM 68.0 °F 53.6 °F 60% 29.90 in 10.0 mi West 6.9 mph - N/A   Clear
8:59 AM 69.8 °F 53.6 °F 56% 29.90 in 10.0 mi West 3.5 mph - N/A   Clear
9:19 AM 71.6 °F 53.6 °F 53% 29.90 in 10.0 mi West 8.1 mph - N/A   Clear
9:39 AM 73.4 °F 53.6 °F 50% 29.89 in 10.0 mi West 6.9 mph - N/A   Clear
9:59 AM 73.4 °F 51.8 °F 47% 29.89 in 10.0 mi WNW 6.9 mph - N/A   Clear
10:19 AM 75.2 °F 51.8 °F 44% 29.89 in 10.0 mi WNW 9.2 mph - N/A   Clear
10:39 AM 77.0 °F 50.0 °F 39% 29.89 in 10.0 mi West 12.7 mph 18.4 mph N/A   Clear
10:59 AM 77.0 °F 51.8 °F 41% 29.89 in 10.0 mi West 12.7 mph 19.6 mph N/A   Clear
11:19 AM 78.8 °F 51.8 °F 39% 29.89 in 10.0 mi WNW 10.4 mph - N/A   Clear
11:39 AM 78.8 °F 50.0 °F 36% 29.88 in 10.0 mi WNW 8.1 mph 17.3 mph N/A   Clear
11:59 AM 78.8 °F 50.0 °F 36% 29.88 in 10.0 mi WNW 11.5 mph 20.7 mph N/A   Clear
12:19 PM 78.8 °F 50.0 °F 36% 29.88 in 10.0 mi West 15.0 mph 23.0 mph N/A   Clear
12:39 PM 78.8 °F 48.2 °F 34% 29.87 in 10.0 mi West 11.5 mph 21.9 mph N/A   Clear
12:59 PM 80.6 °F 50.0 °F 34% 29.87 in 10.0 mi WNW 10.4 mph 17.3 mph N/A   Clear
1:19 PM 80.6 °F 50.0 °F 34% 29.86 in 10.0 mi West 15.0 mph 23.0 mph N/A   Scattered Clouds
1:39 PM 80.6 °F 50.0 °F 34% 29.86 in 10.0 mi West 10.4 mph 18.4 mph N/A   Scattered Clouds
1:59 PM 80.6 °F 51.8 °F 37% 29.86 in 10.0 mi West 11.5 mph - N/A   Scattered Clouds
2:19 PM 80.6 °F 48.2 °F 32% 29.86 in 10.0 mi West 12.7 mph 21.9 mph N/A   Scattered Clouds
2:39 PM 80.6 °F 46.4 °F 30% 29.86 in 10.0 mi WNW 9.2 mph 18.4 mph N/A   Scattered Clouds
2:59 PM 82.4 °F 46.4 °F 28% 29.86 in 10.0 mi West 17.3 mph 24.2 mph N/A   Scattered Clouds
3:19 PM 80.6 °F 46.4 °F 30% 29.86 in 10.0 mi West 13.8 mph 20.7 mph N/A   Scattered Clouds
3:39 PM 82.4 °F 48.2 °F 30% 29.86 in 10.0 mi West 11.5 mph 20.7 mph N/A   Scattered Clouds
3:59 PM 82.4 °F 46.4 °F 28% 29.85 in 10.0 mi West 10.4 mph 21.9 mph N/A   Scattered Clouds
4:19 PM 82.4 °F 46.4 °F 28% 29.84 in 10.0 mi West 16.1 mph 24.2 mph N/A   Scattered Clouds
4:39 PM 82.4 °F 48.2 °F 30% 29.83 in 10.0 mi West 13.8 mph 24.2 mph N/A   Scattered Clouds
4:59 PM 82.4 °F 46.4 °F 28% 29.82 in 10.0 mi West 9.2 mph 19.6 mph N/A   Scattered Clouds
5:20 PM 82.4 °F 44.6 °F 26% 29.82 in 10.0 mi West 12.7 mph 24.2 mph N/A   Clear
5:39 PM 82.4 °F 44.6 °F 26% 29.82 in 10.0 mi West 16.1 mph 24.2 mph N/A   Clear
5:59 PM 82.4 °F 46.4 °F 28% 29.82 in 10.0 mi West 10.4 mph 20.7 mph N/A   Clear
6:19 PM 82.4 °F 46.4 °F 28% 29.82 in 10.0 mi West 8.1 mph 12.7 mph N/A   Scattered Clouds
6:39 PM 80.6 °F 46.4 °F 30% 29.81 in 10.0 mi West 10.4 mph 17.3 mph N/A   Scattered Clouds
6:59 PM 80.6 °F 46.4 °F 30% 29.81 in 10.0 mi West 11.5 mph 16.1 mph N/A   Scattered Clouds
7:19 PM 80.6 °F 46.4 °F 30% 29.81 in 10.0 mi WNW 4.6 mph - N/A   Clear
7:39 PM 80.6 °F 48.2 °F 32% 29.80 in 10.0 mi West 5.8 mph - N/A   Clear
7:59 PM 77.0 °F 51.8 °F 41% 29.81 in 10.0 mi WSW 13.8 mph 25.3 mph N/A   Scattered Clouds
8:19 PM 75.2 °F 53.6 °F 47% 29.81 in 10.0 mi WSW 11.5 mph 26.5 mph N/A   Scattered Clouds
8:39 PM 73.4 °F 53.6 °F 50% 29.81 in 10.0 mi WSW 9.2 mph - N/A   Clear
8:59 PM 71.6 °F 53.6 °F 53% 29.82 in 10.0 mi West 4.6 mph - N/A   Clear
9:19 PM 68.0 °F 53.6 °F 60% 29.82 in 10.0 mi WSW 4.6 mph - N/A   Clear
9:39 PM 69.8 °F 53.6 °F 56% 29.82 in 10.0 mi Calm Calm - N/A Thunderstorm Clear
10:00 PM 64.4 °F 55.4 °F 73% 29.82 in 10.0 mi Calm Calm - N/A   Clear
10:19 PM 62.6 °F 55.4 °F 77% 29.83 in 10.0 mi Calm Calm - N/A   Clear
10:39 PM 60.8 °F 55.4 °F 82% 29.83 in 10.0 mi Calm Calm - N/A   Scattered Clouds
11:00 PM 60.8 °F 55.4 °F 82% 29.85 in 10.0 mi Calm Calm - N/A   Scattered Clouds
11:19 PM 60.8 °F 53.6 °F 77% 29.86 in 10.0 mi Calm Calm - N/A   Scattered Clouds
11:39 PM 60.8 °F 55.4 °F 82% 29.86 in 10.0 mi North 4.6 mph - N/A   Scattered Clouds
11:59 PM 60.8 °F 53.6 °F 77% 29.85 in 10.0 mi ENE 3.5 mph - N/A   Scattered Clouds